[[{"header":{"parameterUnit":"m.s-1","parameterCategory":2,"la1":30.2991,"la2":30.254,"lo1":-89.0895,"lo2":-89.0444,"dy":0.0017,"dx":0.0017,"nx":28,"ny":28,"refTime":"2026-01-01T09:00:00:Z","depth":"0","parameterNumber":2,"parameterNumberName":"U-component_of_CURRENTS"},"data":[0,0,0,0,0,0,0,0,0,0,0,0,0,0,0,0,0,0,0,0,0,0,0,0,0,0,0,0,0,0,0,0,0,0,0,0,0,0,0,0,0,0,0,0,0,0,0,0,0,0,0,0,0,0,0,0,0,0,-0.2202,-0.2203,0,-0.2309,-0.231,-0.2311,-0.2299,-0.2298,-0.2296,-0.2295,-0.232,-0.2322,-0.2324,0,0,0,0,0,0,0,0,0,0,0,0,0,-0.2049,-0.2051,-0.2202,-0.2203,-0.2205,-0.2309,-0.231,-0.2311,-0.23,-0.2298,-0.2296,-0.2294,-0.2319,-0.2321,-0.2324,0,0,0,0,0,0,0,0,0,0,0,0,0,-0.2128,-0.2052,-0.2202,-0.2214,-0.2216,-0.2308,-0.231,-0.2311,-0.23,-0.2298,-0.2296,-0.2294,-0.2318,-0.2321,-0.2324,-0.2386,0,0,-0.2333,-0.2335,0,0,0,0,0,0,0,0,-0.2124,-0.2134,-0.221,-0.2213,-0.2216,-0.2291,-0.2265,-0.2333,-0.23,-0.2265,-0.2295,-0.2293,-0.2306,-0.231,-0.2332,-0.2387,-0.2388,-0.2334,-0.2335,-0.2337,-0.2338,0,0,0,0,0,0,0,-0.2118,-0.2129,-0.2241,-0.2212,-0.2216,-0.2235,-0.2243,-0.2278,-0.2293,-0.2268,-0.2268,-0.2285,-0.2306,-0.2329,-0.2332,-0.2388,-0.2334,-0.2336,-0.2338,-0.2339,-0.2451,-0.2452,0,0,0,0,0,0,-0.2111,-0.2124,-0.2238,-0.2245,-0.2167,-0.2239,-0.2248,-0.2267,-0.2294,-0.2298,-0.2287,-0.2284,-0.2325,-0.2329,-0.2333,-0.2351,-0.2337,-0.234,-0.2341,-0.245,-0.2451,-0.2452,0,0,0,0,0,0,-0.2107,-0.212,-0.2234,-0.2189,-0.2205,-0.2244,-0.2265,-0.227,-0.2286,-0.231,-0.2311,-0.2297,-0.2324,-0.2329,-0.2356,-0.2353,-0.2341,-0.2344,-0.2448,-0.245,-0.2452,-0.2422,0,0,0,0,0,0,-0.2102,-0.2118,-0.2124,-0.2188,-0.2207,-0.2287,-0.2268,-0.2274,-0.2302,-0.2299,-0.232,-0.232,-0.2322,-0.2352,-0.2359,-0.2357,-0.2346,-0.2447,-0.2449,-0.2451,-0.2422,-0.2423,-0.2424,0,0,0,0,0,-0.2096,-0.2117,-0.2124,-0.2138,-0.2216,-0.2288,-0.23,-0.2318,-0.2304,-0.2322,-0.2327,-0.2319,-0.237,-0.2356,-0.2364,-0.2362,-0.2446,-0.2448,-0.2451,-0.2421,-0.2423,-0.2424,0,0,0,0,0,0,-0.2054,-0.2121,-0.2128,-0.2168,-0.2222,-0.2287,-0.2304,-0.2323,-0.2346,-0.233,-0.2341,-0.2344,-0.2368,-0.2382,-0.2365,-0.2404,-0.2405,-0.2409,-0.238,-0.2381,-0.2382,-0.2365,-0.2348,0,0,0,0,0,-0.2051,-0.2077,-0.2149,-0.2176,-0.2203,-0.2254,-0.2282,-0.23,-0.2334,-0.2342,-0.2361,-0.2375,-0.2392,-0.2396,-0.2424,-0.2451,-0.2436,-0.2456,-0.2457,-0.2457,-0.2452,-0.2432,-0.2429,-0.2461,-0.2461,-0.2461,0,0,-0.2041,-0.208,-0.2094,-0.2168,-0.2205,-0.2248,-0.2264,-0.2309,-0.2329,-0.2342,-0.2367,-0.2387,-0.2405,-0.2427,-0.2438,-0.243,-0.244,-0.2461,-0.246,-0.2455,-0.2434,-0.243,-0.2427,-0.2463,-0.2462,-0.2462,0,0,-0.2041,-0.2071,-0.2095,-0.2141,-0.2204,-0.224,-0.2254,-0.2323,-0.2334,-0.2375,-0.2379,-0.2392,-0.2439,-0.2438,-0.2443,-0.2473,-0.2453,-0.2489,-0.2468,-0.2449,-0.2445,-0.2442,-0.2406,-0.2399,-0.2479,-0.2479,-0.2479,0,-0.2024,-0.2066,-0.2114,-0.2152,-0.2185,-0.2234,-0.2269,-0.2299,-0.2365,-0.2375,-0.2373,-0.2424,-0.2436,-0.2444,-0.2448,-0.2469,-0.2455,-0.2455,-0.2446,-0.2442,-0.2439,-0.2403,-0.2397,-0.2478,-0.2478,-0.2478,-0.2479,0,-0.2047,-0.2079,-0.2099,-0.2155,-0.2197,-0.2238,-0.2291,-0.2323,-0.234,-0.2367,-0.2392,-0.2411,-0.2434,-0.2442,-0.2449,-0.2443,-0.2438,-0.2452,-0.2431,-0.2433,-0.2397,-0.239,-0.2477,-0.2477,-0.2477,-0.2478,0,0,-0.2007,-0.2097,-0.2099,-0.2127,-0.2201,-0.2241,-0.2272,-0.2323,-0.2335,-0.2371,-0.2381,-0.2404,-0.2413,-0.2422,-0.2435,-0.2414,-0.2372,-0.2421,-0.242,-0.2365,-0.2316,-0.2213,-0.2195,-0.2382,-0.2382,-0.2381,-0.2294,0,-0.2006,-0.2067,-0.2113,-0.2161,-0.2199,-0.2251,-0.2281,-0.2323,-0.2351,-0.2375,-0.2375,-0.2396,-0.2405,-0.2412,-0.2393,-0.2392,-0.2357,-0.2394,-0.2342,-0.234,-0.223,-0.2185,-0.2063,-0.1967,-0.2287,-0.2286,-0.2285,0,-0.2006,-0.2048,-0.2097,-0.217,-0.219,-0.222,-0.2271,-0.2309,-0.2344,-0.2363,-0.2372,-0.2388,-0.2374,-0.2379,-0.2337,-0.2363,-0.2333,-0.2318,-0.2314,-0.2221,-0.2223,-0.2023,-0.1943,-0.1935,-0.2275,-0.2276,-0.2276,0,-0.1952,-0.2034,-0.2067,-0.2094,-0.2184,-0.2202,-0.2243,-0.2294,-0.232,-0.2351,-0.2362,-0.236,-0.2352,-0.2324,-0.229,-0.2317,-0.2226,-0.2259,-0.213,-0.2123,-0.201,-0.1993,-0.1895,-0.2207,-0.2207,-0.2208,-0.2208,0,-0.1935,-0.1958,-0.2043,-0.2061,-0.2093,-0.2168,-0.2198,-0.2241,-0.2289,-0.2302,-0.2346,-0.2335,-0.2339,-0.2297,-0.227,-0.2157,-0.2202,-0.2102,-0.2084,-0.1996,-0.198,-0.1962,-0.2017,-0.2204,-0.2205,-0.2206,-0.2206,0,-0.1867,-0.1928,-0.1967,-0.2048,-0.207,-0.2088,-0.2167,-0.2186,-0.2249,-0.2262,-0.227,-0.23,-0.2232,-0.2208,-0.2148,-0.211,-0.1989,-0.1983,-0.1866,-0.1835,-0.1703,-0.1762,-0.1677,-0.1634,-0.1822,-0.1819,-0.1816,0,-0.1838,-0.1852,-0.1929,-0.1942,-0.1974,-0.2019,-0.2045,-0.2139,-0.2163,-0.2224,-0.2213,-0.2179,-0.2102,-0.1971,-0.1886,-0.1775,-0.1837,-0.1638,-0.166,-0.1645,-0.17,-0.177,-0.1747,-0.1502,-0.1497,-0.1493,-0.149,0,-0.1765,-0.179,-0.1818,-0.1846,-0.1873,-0.191,-0.1958,-0.1975,-0.2071,-0.2077,-0.2048,-0.1989,-0.1866,-0.1682,-0.1564,-0.1506,-0.1599,-0.1547,-0.1565,-0.1451,-0.1489,-0.1455,-0.1618,-0.1453,-0.1456,-0.1459,-0.1461,-0.1463,-0.1689,-0.1684,-0.1714,-0.1727,-0.1755,-0.1761,-0.174,-0.1794,-0.1793,-0.1749,-0.1812,-0.1635,-0.1564,-0.1348,-0.1293,-0.1173,-0.1294,-0.1158,-0.1232,-0.1305,-0.1251,-0.1314,-0.1114,-0.1116,-0.1117,-0.1119,-0.112,0,-0.1584,-0.1583,-0.1591,-0.1596,-0.1564,-0.1625,-0.164,-0.1579,-0.1509,-0.1457,-0.138,-0.1195,-0.1064,-0.1015,-0.0933,-0.089,-0.0912,-0.0904,-0.099,-0.0983,-0.1038,-0.1009,-0.0735,-0.0735,-0.0735,-0.0735,-0.0736,-0.0736,-0.1528,-0.1487,-0.1487,-0.139,-0.1383,-0.1286,-0.1256,-0.1181,-0.1097,-0.0882,-0.0716,-0.064,-0.0711,-0.0875,-0.0846,-0.0805,-0.0854,-0.0812,-0.0896,-0.0961,-0.0992,-0.1021,-0.1003,-0.0733,-0.0733,-0.0769,-0.077,-0.077]},{"header":{"parameterUnit":"m.s-1","parameterCategory":2,"la1":30.2991,"la2":30.254,"lo1":-89.0895,"lo2":-89.0444,"dy":0.0017,"dx":0.0017,"nx":28,"ny":28,"refTime":"2026-01-01T09:00:00:Z","depth":"0","parameterNumber":3,"parameterNumberName":"V-component_of_CURRENTS"},"data":[0,0,0,0,0,0,0,0,0,0,0,0,0,0,0,0,0,0,0,0,0,0,0,0,0,0,0,0,0,0,0,0,0,0,0,0,0,0,0,0,0,0,0,0,0,0,0,0,0,0,0,0,0,0,0,0,0,0,0.0015,0.0016,0,0.0161,0.0163,0.0164,0.0262,0.0263,0.0263,0.0263,0.0438,0.0442,0.0446,0,0,0,0,0,0,0,0,0,0,0,0,0,-0.0064,-0.0063,0.0015,0.0017,0.0018,0.016,0.0163,0.0165,0.0262,0.0263,0.0263,0.0264,0.0436,0.0441,0.0447,0,0,0,0,0,0,0,0,0,0,0,0,0,0.0017,-0.0063,0.0015,0.0082,0.0089,0.016,0.0163,0.0165,0.0262,0.0263,0.0263,0.0264,0.0435,0.0441,0.0447,0.0473,0,0,0.0467,0.0469,0,0,0,0,0,0,0,0,0.0012,0.002,0.007,0.0077,0.0085,0.0192,0.0199,0.0269,0.0262,0.0199,0.0263,0.0264,0.0356,0.0369,0.0398,0.0482,0.0489,0.0467,0.0471,0.0474,0.0476,0,0,0,0,0,0,0,0.0006,0.0015,0.0075,0.0072,0.0081,0.0144,0.0155,0.0213,0.0275,0.0205,0.0211,0.0223,0.0361,0.0392,0.0403,0.0492,0.0467,0.0473,0.0477,0.0479,0.0584,0.0583,0,0,0,0,0,0,-0.0024,0.0009,0.0071,0.008,0.0047,0.0144,0.0157,0.0159,0.0274,0.0291,0.0222,0.0227,0.0381,0.0395,0.0409,0.0415,0.0474,0.048,0.0483,0.0585,0.0584,0.0583,0,0,0,0,0,0,-0.0026,-0.002,0.0065,0.0046,0.0061,0.0143,0.0146,0.0162,0.0192,0.0286,0.0305,0.0235,0.0382,0.0401,0.0443,0.0424,0.0483,0.0488,0.0586,0.0585,0.0583,0.0447,0,0,0,0,0,0,-0.0029,-0.0022,-0.0029,0.0044,0.0061,0.0092,0.0145,0.0164,0.0196,0.0204,0.0304,0.0321,0.0384,0.0433,0.0449,0.0434,0.0493,0.0587,0.0585,0.0584,0.0453,0.0441,0.0431,0,0,0,0,0,-0.0033,-0.0049,-0.0031,-0.0023,0.0047,0.0091,0.0106,0.017,0.0196,0.0201,0.026,0.0318,0.0432,0.0437,0.0456,0.0442,0.0588,0.0586,0.0584,0.0458,0.0444,0.0432,0,0,0,0,0,0,-0.0082,-0.0038,-0.0017,-0.0018,0.0026,0.0106,0.0117,0.0159,0.0213,0.0216,0.0307,0.0328,0.0361,0.0417,0.0419,0.0466,0.0519,0.052,0.0417,0.0404,0.0393,0.0383,0.0499,0,0,0,0,0,-0.01,-0.0103,-0.0047,-0.0047,-0.0034,0.0038,0.0065,0.0103,0.0159,0.0185,0.0252,0.0317,0.0367,0.0395,0.0454,0.0478,0.0534,0.0481,0.047,0.046,0.0465,0.0519,0.0513,0.0575,0.0575,0.0575,0,0,-0.0118,-0.0096,-0.0095,-0.0058,-0.002,-0.0011,0.0056,0.0081,0.0092,0.0194,0.0225,0.0286,0.0366,0.0393,0.0412,0.0436,0.0469,0.0457,0.0448,0.0459,0.0516,0.051,0.0504,0.0573,0.0574,0.0574,0,0,-0.0161,-0.014,-0.0158,-0.0133,-0.0094,-0.0052,-0.0053,0.0015,0.0047,0.0079,0.0151,0.0194,0.0276,0.0327,0.0363,0.0327,0.0411,0.0344,0.028,0.0331,0.0326,0.0323,0.0368,0.0369,0.0335,0.0334,0.0334,0,-0.0183,-0.0197,-0.0154,-0.0165,-0.015,-0.0081,-0.0091,-0.0054,0.002,0.0045,0.0067,0.0185,0.0245,0.0287,0.0268,0.0303,0.0346,0.0319,0.0315,0.0314,0.0313,0.036,0.0364,0.0328,0.0328,0.0329,0.033,0,-0.0237,-0.0246,-0.0256,-0.025,-0.0229,-0.0227,-0.0177,-0.0154,-0.0112,-0.0062,-0.001,0.0068,0.0144,0.0157,0.02,0.0222,0.0258,0.0296,0.0345,0.0298,0.0351,0.0357,0.0318,0.032,0.0322,0.0324,0,0,-0.0287,-0.0293,-0.0296,-0.0306,-0.0273,-0.0262,-0.0256,-0.0216,-0.02,-0.0142,-0.0109,-0.0044,0.0014,0.0058,0.0121,0.0153,0.0167,0.0207,0.0213,0.0244,0.0276,0.0312,0.0324,0.0202,0.0203,0.0204,0.0308,0,-0.0337,-0.0386,-0.0365,-0.0396,-0.0413,-0.0355,-0.0349,-0.0306,-0.0254,-0.0208,-0.0131,-0.0074,-0.0028,0.0007,0.0043,0.0152,0.0182,0.0136,0.0325,0.0331,0.0362,0.0332,0.0404,0.0505,0.0315,0.0317,0.0317,0,-0.0393,-0.0417,-0.0466,-0.0467,-0.0467,-0.0471,-0.0436,-0.0418,-0.0342,-0.0299,-0.0234,-0.0152,-0.0083,-0.0042,0.01,0.007,0.0156,0.0228,0.0235,0.0327,0.038,0.0527,0.0525,0.0694,0.0328,0.0328,0.0327,0,-0.0453,-0.0482,-0.0525,-0.0527,-0.0521,-0.0522,-0.0507,-0.0446,-0.0425,-0.0346,-0.0315,-0.0211,-0.0145,-0.0036,0.0117,0.0112,0.0276,0.0297,0.0408,0.0412,0.0543,0.0556,0.0725,0.0386,0.0385,0.0385,0.0385,0,-0.0514,-0.0544,-0.0559,-0.0583,-0.062,-0.0583,-0.0593,-0.0557,-0.0497,-0.0465,-0.0363,-0.0302,-0.014,-0.0017,0.0104,0.0281,0.0274,0.0398,0.0442,0.0495,0.0502,0.0713,0.0763,0.0389,0.0388,0.0387,0.0387,0,-0.0573,-0.0584,-0.0635,-0.0648,-0.0654,-0.0678,-0.0662,-0.0659,-0.0592,-0.0545,-0.0519,-0.0364,-0.0192,-0.0028,0.0175,0.0277,0.054,0.0497,0.0542,0.0588,0.083,0.0868,0.1036,0.1148,0.063,0.0631,0.0633,0,-0.0609,-0.0645,-0.0694,-0.0729,-0.074,-0.0763,-0.0775,-0.072,-0.0705,-0.0568,-0.0548,-0.0367,-0.0206,0.0096,0.0307,0.053,0.0636,0.0706,0.0702,0.0855,0.0931,0.0928,0.101,0.0821,0.0824,0.0826,0.0828,0,-0.0672,-0.0691,-0.0732,-0.081,-0.0846,-0.0876,-0.0879,-0.0882,-0.0791,-0.0689,-0.0525,-0.0373,-0.0074,0.0242,0.0511,0.0639,0.0834,0.0756,0.0923,0.1096,0.1099,0.1225,0.0731,0.0848,0.0846,0.0844,0.0843,0.0842,-0.0708,-0.0759,-0.0816,-0.0884,-0.093,-0.0968,-0.0973,-0.0913,-0.0829,-0.0583,-0.0479,-0.0105,0.0232,0.0643,0.0769,0.1083,0.1008,0.1197,0.123,0.1212,0.1322,0.0853,0.1009,0.1008,0.1008,0.1007,0.1006,0,-0.0748,-0.0805,-0.0883,-0.096,-0.1014,-0.1016,-0.1019,-0.0941,-0.0788,-0.0439,-0.0175,0.0395,0.0756,0.1056,0.1411,0.1574,0.1595,0.1652,0.1698,0.1762,0.1382,0.1394,0.1632,0.1632,0.1631,0.1631,0.1631,0.1631,-0.077,-0.0854,-0.0899,-0.1003,-0.1051,-0.1065,-0.1052,-0.0863,-0.0598,-0.0026,0.0465,0.0826,0.12,0.1648,0.2002,0.2025,0.2188,0.2126,0.2211,0.1985,0.1946,0.1909,0.1937,0.2284,0.2284,0.2615,0.2618,0.262]}],[{"header":{"parameterUnit":"m.s-1","parameterCategory":2,"la1":30.2991,"la2":30.254,"lo1":-89.0895,"lo2":-89.0444,"dy":0.0017,"dx":0.0017,"nx":28,"ny":28,"refTime":"2026-01-01T09:00:00:Z","depth":"2","parameterNumber":2,"parameterNumberName":"U-component_of_CURRENTS"},"data":[0,0,0,0,0,0,0,0,0,0,0,0,0,0,0,0,0,0,0,0,0,0,0,0,0,0,0,0,0,0,0,0,0,0,0,0,0,0,0,0,0,0,0,0,0,0,0,0,0,0,0,0,0,0,0,0,0,0,-0.2089,-0.2089,0,-0.2165,-0.2166,-0.2166,-0.2176,-0.2175,-0.2175,-0.2174,-0.2224,-0.2225,-0.2227,0,0,0,0,0,0,0,0,0,0,0,0,0,-0.1972,-0.1974,-0.2088,-0.209,-0.2091,-0.2165,-0.2166,-0.2167,-0.2176,-0.2175,-0.2175,-0.2174,-0.2223,-0.2225,-0.2227,0,0,0,0,0,0,0,0,0,0,0,0,0,-0.2031,-0.1974,-0.2088,-0.2106,-0.2108,-0.2165,-0.2166,-0.2167,-0.2176,-0.2175,-0.2174,-0.2174,-0.2222,-0.2225,-0.2228,-0.2263,0,0,-0.2236,-0.2238,0,0,0,0,0,0,0,0,-0.2028,-0.2035,-0.2102,-0.2104,-0.2107,-0.2161,-0.2143,-0.2198,-0.2176,-0.2148,-0.2174,-0.2173,-0.2202,-0.2207,-0.2221,-0.2265,-0.2267,-0.2237,-0.2238,-0.2239,-0.224,0,0,0,0,0,0,0,-0.2024,-0.2032,-0.2117,-0.2103,-0.2107,-0.2117,-0.2124,-0.2154,-0.2177,-0.2151,-0.2152,-0.2164,-0.2203,-0.2218,-0.2222,-0.2268,-0.2236,-0.2239,-0.2241,-0.2242,-0.2328,-0.2329,0,0,0,0,0,0,-0.2018,-0.2028,-0.2115,-0.2119,-0.2066,-0.212,-0.2128,-0.2144,-0.2178,-0.2183,-0.2164,-0.2164,-0.2214,-0.2219,-0.2224,-0.2255,-0.2239,-0.2242,-0.2244,-0.2328,-0.2328,-0.2329,0,0,0,0,0,0,-0.2015,-0.2025,-0.2112,-0.2076,-0.2088,-0.2123,-0.2141,-0.2146,-0.2161,-0.2189,-0.2193,-0.2175,-0.2213,-0.222,-0.2256,-0.2258,-0.2243,-0.2246,-0.2327,-0.2328,-0.2329,-0.2326,0,0,0,0,0,0,-0.2012,-0.2024,-0.2031,-0.2076,-0.209,-0.2149,-0.2142,-0.2148,-0.2171,-0.2171,-0.2199,-0.2203,-0.2213,-0.2252,-0.2258,-0.2261,-0.2248,-0.2326,-0.2327,-0.2329,-0.2326,-0.2327,-0.2328,0,0,0,0,0,-0.2007,-0.2026,-0.2031,-0.2041,-0.21,-0.215,-0.2158,-0.2178,-0.2172,-0.2187,-0.2205,-0.2202,-0.2263,-0.2255,-0.2263,-0.2266,-0.2326,-0.2327,-0.2328,-0.2325,-0.2327,-0.2328,0,0,0,0,0,0,-0.198,-0.2031,-0.2036,-0.2069,-0.2106,-0.2152,-0.2168,-0.2182,-0.2209,-0.2205,-0.2221,-0.2227,-0.2257,-0.2268,-0.2258,-0.2294,-0.229,-0.2293,-0.2285,-0.2286,-0.2288,-0.2277,-0.225,0,0,0,0,0,-0.1977,-0.2,-0.2051,-0.2073,-0.2094,-0.213,-0.215,-0.2167,-0.2199,-0.221,-0.2234,-0.2252,-0.2271,-0.2283,-0.2306,-0.2335,-0.2319,-0.2339,-0.234,-0.2341,-0.2339,-0.2323,-0.2322,-0.2334,-0.2334,-0.2334,0,0,-0.197,-0.2001,-0.2013,-0.2068,-0.2095,-0.2132,-0.214,-0.2176,-0.2199,-0.2212,-0.2248,-0.2264,-0.2281,-0.2308,-0.2321,-0.2316,-0.2328,-0.2343,-0.2344,-0.234,-0.2324,-0.2323,-0.2322,-0.2335,-0.2334,-0.2334,0,0,-0.1973,-0.1998,-0.202,-0.2056,-0.2104,-0.2132,-0.2143,-0.2197,-0.2211,-0.2253,-0.2259,-0.2277,-0.2319,-0.2326,-0.2332,-0.2357,-0.2338,-0.2364,-0.2361,-0.2346,-0.2345,-0.2343,-0.2308,-0.2304,-0.2362,-0.2362,-0.2362,0,-0.1961,-0.1997,-0.2034,-0.2069,-0.2095,-0.2132,-0.2163,-0.2191,-0.2247,-0.2258,-0.2262,-0.2307,-0.2322,-0.2337,-0.2344,-0.2358,-0.2341,-0.2352,-0.2346,-0.2344,-0.2343,-0.2308,-0.2303,-0.2362,-0.2362,-0.2362,-0.2362,0,-0.1983,-0.2014,-0.2033,-0.2084,-0.2118,-0.2153,-0.22,-0.223,-0.2248,-0.2271,-0.2297,-0.2319,-0.2339,-0.2345,-0.2354,-0.2353,-0.2341,-0.2349,-0.2337,-0.2341,-0.2304,-0.2299,-0.2362,-0.2362,-0.2362,-0.2362,0,0,-0.1947,-0.2032,-0.2034,-0.2061,-0.2129,-0.216,-0.2199,-0.2243,-0.226,-0.2295,-0.2307,-0.2335,-0.234,-0.2347,-0.2356,-0.2345,-0.2317,-0.2343,-0.2342,-0.2299,-0.2267,-0.2162,-0.2146,-0.2323,-0.2323,-0.2322,-0.224,0,-0.1949,-0.2008,-0.2051,-0.21,-0.2136,-0.2183,-0.2217,-0.2256,-0.2285,-0.231,-0.2313,-0.2334,-0.2341,-0.2348,-0.2338,-0.2331,-0.2305,-0.2337,-0.2278,-0.2275,-0.2174,-0.2138,-0.1987,-0.1892,-0.2235,-0.2234,-0.2233,0,-0.1951,-0.1991,-0.204,-0.2112,-0.213,-0.2161,-0.2213,-0.2251,-0.229,-0.2309,-0.2322,-0.2334,-0.233,-0.2333,-0.2298,-0.2318,-0.2289,-0.2274,-0.227,-0.2169,-0.2161,-0.1948,-0.187,-0.2224,-0.2225,-0.2225,-0.2226,0,-0.19,-0.198,-0.2014,-0.204,-0.2127,-0.2147,-0.2188,-0.2241,-0.2268,-0.2303,-0.2316,-0.232,-0.2315,-0.229,-0.2258,-0.228,-0.2201,-0.2227,-0.2099,-0.2091,-0.1947,-0.1927,-0.2185,-0.2185,-0.2185,-0.2185,-0.2185,0,-0.1885,-0.1909,-0.1992,-0.201,-0.2044,-0.2116,-0.215,-0.2193,-0.2243,-0.226,-0.2304,-0.2299,-0.2305,-0.2267,-0.2241,-0.2133,-0.218,-0.2077,-0.2057,-0.1941,-0.1922,-0.2208,-0.2212,-0.2182,-0.2183,-0.2183,-0.2184,0,-0.1821,-0.188,-0.192,-0.2001,-0.2022,-0.2042,-0.2122,-0.2143,-0.2207,-0.2226,-0.2235,-0.2269,-0.2207,-0.2184,-0.213,-0.2091,-0.2018,-0.1968,-0.1818,-0.178,-0.1925,-0.193,-0.1817,-0.1813,-0.1809,-0.1806,-0.1803,0,-0.1794,-0.1808,-0.1886,-0.19,-0.1932,-0.1979,-0.2006,-0.21,-0.2127,-0.2192,-0.2184,-0.2155,-0.2084,-0.1959,-0.187,-0.176,-0.1875,-0.1597,-0.1611,-0.1892,-0.1885,-0.1896,-0.1906,-0.142,-0.1414,-0.141,-0.1406,0,-0.1725,-0.1751,-0.1779,-0.1809,-0.1838,-0.1876,-0.1928,-0.1946,-0.2044,-0.2055,-0.2033,-0.1978,-0.1853,-0.1656,-0.1534,-0.1473,-0.1605,-0.1499,-0.1815,-0.1538,-0.1511,-0.1506,-0.153,-0.1365,-0.1369,-0.1372,-0.1374,-0.1376,-0.1653,-0.165,-0.1681,-0.1696,-0.1726,-0.1737,-0.1718,-0.1776,-0.1781,-0.1764,-0.1823,-0.1686,-0.1626,-0.1323,-0.1222,-0.1156,-0.1278,-0.1257,-0.1274,-0.1296,-0.1266,-0.1234,-0.1029,-0.1031,-0.1033,-0.1035,-0.1036,0,-0.1552,-0.1555,-0.1564,-0.1572,-0.1543,-0.1606,-0.1626,-0.157,-0.1509,-0.152,-0.1465,-0.126,-0.1101,-0.1047,-0.0857,-0.0818,-0.0843,-0.0808,-0.0854,-0.0893,-0.0928,-0.0884,-0.0544,-0.0542,-0.0541,-0.054,0,0,-0.1498,-0.1461,-0.1461,-0.1372,-0.137,-0.1279,-0.1251,-0.1187,-0.1146,-0.105,-0.0987,-0.1043,-0.1004,-0.0786,-0.0717,-0.0595,-0.0743,-0.0559,-0.0949,-0.1041,-0.1075,-0.1173,-0.1146,0,0,0,0,0]},{"header":{"parameterUnit":"m.s-1","parameterCategory":2,"la1":30.2991,"la2":30.254,"lo1":-89.0895,"lo2":-89.0444,"dy":0.0017,"dx":0.0017,"nx":28,"ny":28,"refTime":"2026-01-01T09:00:00:Z","depth":"2","parameterNumber":3,"parameterNumberName":"V-component_of_CURRENTS"},"data":[0,0,0,0,0,0,0,0,0,0,0,0,0,0,0,0,0,0,0,0,0,0,0,0,0,0,0,0,0,0,0,0,0,0,0,0,0,0,0,0,0,0,0,0,0,0,0,0,0,0,0,0,0,0,0,0,0,0,-0.0143,-0.0143,0,-0.0063,-0.0063,-0.0062,0.0023,0.0024,0.0025,0.0026,0.018,0.0183,0.0186,0,0,0,0,0,0,0,0,0,0,0,0,0,-0.0183,-0.0183,-0.0143,-0.0143,-0.0142,-0.0064,-0.0062,-0.0061,0.0023,0.0024,0.0025,0.0026,0.0179,0.0182,0.0186,0,0,0,0,0,0,0,0,0,0,0,0,0,-0.014,-0.0183,-0.0144,-0.0091,-0.0086,-0.0064,-0.0062,-0.0061,0.0022,0.0024,0.0026,0.0027,0.0177,0.0182,0.0186,0.0182,0,0,0.0201,0.0203,0,0,0,0,0,0,0,0,-0.0143,-0.0139,-0.01,-0.0095,-0.0089,-0.0029,-0.002,0.0024,0.0022,-0.0018,0.0026,0.0028,0.0115,0.0125,0.0136,0.0189,0.0196,0.0201,0.0204,0.0206,0.0207,0,0,0,0,0,0,0,-0.0146,-0.0141,-0.0111,-0.0099,-0.0092,-0.0058,-0.005,-0.0011,0.004,-0.0014,-0.0008,-0.0001,0.0119,0.0131,0.0141,0.0198,0.0201,0.0205,0.0208,0.021,0.0274,0.0273,0,0,0,0,0,0,-0.0162,-0.0145,-0.0113,-0.0109,-0.0113,-0.0059,-0.005,-0.0049,0.0039,0.0053,-0.0003,0.0002,0.0123,0.0135,0.0147,0.0166,0.0206,0.021,0.0213,0.0275,0.0274,0.0273,0,0,0,0,0,0,-0.0163,-0.016,-0.0117,-0.0125,-0.0117,-0.006,-0.006,-0.0049,-0.0029,0.0046,0.0063,0.0006,0.0125,0.014,0.0182,0.0172,0.0212,0.0216,0.0277,0.0275,0.0274,0.0192,0,0,0,0,0,0,-0.0165,-0.0161,-0.0167,-0.0126,-0.0117,-0.0108,-0.0061,-0.0048,-0.0028,-0.0021,0.0059,0.0074,0.0127,0.0174,0.0186,0.0179,0.022,0.0278,0.0276,0.0274,0.0196,0.0188,0.0181,0,0,0,0,0,-0.0166,-0.0182,-0.0168,-0.0164,-0.0127,-0.0109,-0.0101,-0.0054,-0.003,-0.0029,0.0026,0.0072,0.017,0.0177,0.0192,0.0185,0.0279,0.0276,0.0274,0.02,0.019,0.0181,0,0,0,0,0,0,-0.0202,-0.0174,-0.0157,-0.0164,-0.0141,-0.0095,-0.0091,-0.0063,-0.0021,-0.001,0.0063,0.0082,0.0113,0.0154,0.016,0.0196,0.023,0.023,0.0168,0.016,0.0152,0.0148,0.0224,0,0,0,0,0,-0.0216,-0.022,-0.0186,-0.0192,-0.0184,-0.0141,-0.0128,-0.0099,-0.0057,-0.0037,0.0019,0.0072,0.011,0.014,0.0181,0.0202,0.0248,0.0204,0.0197,0.019,0.0194,0.0249,0.0247,0.0265,0.0265,0.0265,0,0,-0.0231,-0.0217,-0.0218,-0.02,-0.0178,-0.0176,-0.0129,-0.0116,-0.0107,-0.0028,0.0003,0.0048,0.0108,0.0134,0.0151,0.0172,0.0206,0.0187,0.0181,0.0189,0.0246,0.0245,0.0244,0.0264,0.0264,0.0264,0,0,-0.027,-0.0253,-0.0271,-0.0256,-0.0232,-0.0205,-0.0206,-0.0163,-0.0136,-0.011,-0.0053,-0.0011,0.0047,0.0093,0.0122,0.0095,0.0161,0.0099,0.0066,0.0118,0.0118,0.0118,0.0161,0.0166,0.01,0.0099,0.0099,0,-0.0289,-0.0305,-0.0273,-0.0284,-0.0276,-0.0224,-0.0237,-0.0208,-0.0155,-0.0134,-0.011,-0.0022,0.0029,0.0069,0.0059,0.008,0.0116,0.0097,0.011,0.0111,0.0112,0.0157,0.0164,0.0095,0.0096,0.0096,0.0097,0,-0.0339,-0.0348,-0.0357,-0.0352,-0.034,-0.0343,-0.0302,-0.0282,-0.0244,-0.0206,-0.016,-0.0092,-0.0033,-0.0021,0.0014,0.0043,0.0065,0.0091,0.0134,0.0106,0.0155,0.0163,0.0089,0.0091,0.0092,0.0093,0,0,-0.0387,-0.0392,-0.0395,-0.0404,-0.0375,-0.0373,-0.0359,-0.0329,-0.0312,-0.0258,-0.0229,-0.0167,-0.0119,-0.0085,-0.0035,0.0009,0.0045,0.0047,0.0051,0.0092,0.0154,0.0185,0.0198,0.0072,0.0073,0.0074,0.0179,0,-0.0433,-0.0478,-0.0458,-0.0486,-0.0503,-0.0451,-0.0441,-0.0403,-0.0355,-0.0312,-0.0236,-0.0189,-0.0147,-0.0118,-0.007,0.0021,0.0064,0.0014,0.0174,0.0179,0.0212,0.0207,0.0192,0.0286,0.0188,0.0189,0.019,0,-0.0485,-0.0507,-0.0553,-0.0553,-0.0553,-0.0556,-0.0522,-0.0504,-0.043,-0.039,-0.0325,-0.0254,-0.0177,-0.0141,0.0002,-0.0033,0.005,0.0119,0.0125,0.0192,0.0226,0.0301,0.0305,0.0204,0.0203,0.0202,0.0201,0,-0.0542,-0.0569,-0.0609,-0.061,-0.0603,-0.0604,-0.0589,-0.053,-0.0509,-0.0431,-0.04,-0.0296,-0.0233,-0.0123,0.0024,0.0015,0.0184,0.0195,0.0301,0.0304,0.0343,0.0348,0.0293,0.0293,0.0293,0.0292,0.0292,0,-0.06,-0.0628,-0.0641,-0.0663,-0.0698,-0.0662,-0.067,-0.0635,-0.0575,-0.0542,-0.0444,-0.0383,-0.0224,-0.0102,0.0015,0.0188,0.0184,0.0301,0.0337,0.0312,0.0312,0.0286,0.0284,0.0296,0.0295,0.0295,0.0294,0,-0.0657,-0.0666,-0.0714,-0.0726,-0.0731,-0.0753,-0.0737,-0.0733,-0.0666,-0.0617,-0.0591,-0.0439,-0.0269,-0.0109,0.0091,0.0187,0.0341,0.0402,0.0358,0.0387,0.0425,0.0417,0.0527,0.0529,0.0531,0.0532,0.0533,0,-0.0692,-0.0725,-0.0771,-0.0804,-0.0814,-0.0836,-0.0847,-0.0792,-0.0775,-0.0638,-0.0616,-0.0437,-0.028,0.0015,0.0205,0.0418,0.0408,0.0515,0.0498,0.0426,0.0451,0.044,0.043,0.0515,0.0516,0.0516,0.0517,0,-0.0753,-0.0769,-0.0808,-0.0883,-0.0917,-0.0945,-0.0946,-0.0948,-0.0856,-0.0761,-0.0599,-0.045,-0.0165,0.0092,0.0346,0.046,0.0477,0.0539,0.0496,0.0452,0.0422,0.0443,0.0433,0.0524,0.0523,0.0523,0.0522,0.0522,-0.0788,-0.0836,-0.0891,-0.0955,-0.0999,-0.1035,-0.1042,-0.0993,-0.0917,-0.0758,-0.0602,-0.0336,-0.0117,0.0274,0.0441,0.0575,0.0574,0.0612,0.0606,0.0601,0.0575,0.0549,0.067,0.067,0.067,0.067,0.067,0,-0.0829,-0.0883,-0.0957,-0.1031,-0.1084,-0.1084,-0.1087,-0.1049,-0.0926,-0.0718,-0.0504,-0.022,0.0081,0.0288,0.0522,0.0665,0.0634,0.0673,0.061,0.0604,0.0598,0.0568,0.0664,0.0664,0.0664,0.0664,0,0,-0.0852,-0.0933,-0.0975,-0.1077,-0.1124,-0.115,-0.114,-0.1048,-0.0881,-0.0649,-0.0423,-0.016,0.0133,0.029,0.0461,0.0579,0.0553,0.058,0.0576,0.0478,0.0471,0.0557,0.0505,0,0,0,0,0]}],[{"header":{"parameterUnit":"m.s-1","parameterCategory":2,"la1":30.2991,"la2":30.254,"lo1":-89.0895,"lo2":-89.0444,"dy":0.0017,"dx":0.0017,"nx":28,"ny":28,"refTime":"2026-01-01T09:00:00:Z","depth":"4","parameterNumber":2,"parameterNumberName":"U-component_of_CURRENTS"},"data":[0,0,0,0,0,0,0,0,0,0,0,0,0,0,0,0,0,0,0,0,0,0,0,0,0,0,0,0,0,0,0,0,0,0,0,0,0,0,0,0,0,0,0,0,0,0,0,0,0,0,0,0,0,0,0,0,0,0,-0.141,-0.1411,0,-0.1434,-0.1434,-0.1434,-0.1443,-0.1443,-0.1443,-0.1443,-0.1505,-0.1506,-0.1508,0,0,0,0,0,0,0,0,0,0,0,0,0,-0.134,-0.1342,-0.141,-0.1411,-0.1411,-0.1434,-0.1434,-0.1434,-0.1443,-0.1443,-0.1443,-0.1443,-0.1504,-0.1506,-0.1508,0,0,0,0,0,0,0,0,0,0,0,0,0,-0.1367,-0.1342,-0.141,-0.1419,-0.142,-0.1434,-0.1434,-0.1434,-0.1443,-0.1443,-0.1443,-0.1443,-0.1504,-0.1506,-0.1508,-0.1523,0,0,-0.1516,-0.1517,0,0,0,0,0,0,0,0,-0.1366,-0.137,-0.1417,-0.1418,-0.1419,-0.1436,-0.1432,-0.1466,-0.1443,-0.1433,-0.1443,-0.1443,-0.1486,-0.149,-0.1492,-0.1526,-0.1529,-0.1516,-0.1518,-0.1519,-0.1519,0,0,0,0,0,0,0,-0.1364,-0.1369,-0.1419,-0.1418,-0.1419,-0.141,-0.1414,-0.1438,-0.1459,-0.1434,-0.1435,-0.1439,-0.1487,-0.149,-0.1494,-0.153,-0.1516,-0.1518,-0.152,-0.1521,-0.1655,-0.1657,0,0,0,0,0,0,-0.1365,-0.1367,-0.1418,-0.142,-0.1393,-0.1411,-0.1416,-0.143,-0.1458,-0.1463,-0.1439,-0.1439,-0.1486,-0.1491,-0.1496,-0.1586,-0.1519,-0.1521,-0.1522,-0.1653,-0.1656,-0.1658,0,0,0,0,0,0,-0.1363,-0.1369,-0.1417,-0.1394,-0.1399,-0.1413,-0.1429,-0.1431,-0.1455,-0.1462,-0.1466,-0.1463,-0.1486,-0.1493,-0.1545,-0.1586,-0.1522,-0.1524,-0.1651,-0.1654,-0.1657,-0.172,0,0,0,0,0,0,-0.1361,-0.1369,-0.139,-0.1394,-0.1401,-0.1444,-0.1429,-0.1431,-0.1456,-0.1457,-0.1484,-0.1488,-0.1487,-0.1542,-0.1547,-0.1588,-0.1526,-0.1648,-0.1652,-0.1656,-0.1716,-0.1725,-0.1734,0,0,0,0,0,-0.1359,-0.1383,-0.1391,-0.1397,-0.1426,-0.1446,-0.1449,-0.1457,-0.1457,-0.1477,-0.1499,-0.1488,-0.1571,-0.1545,-0.1552,-0.1594,-0.1646,-0.1651,-0.1655,-0.1712,-0.1723,-0.1733,0,0,0,0,0,0,-0.1359,-0.1387,-0.1395,-0.1427,-0.1445,-0.1448,-0.147,-0.1472,-0.1503,-0.1515,-0.1515,-0.1522,-0.158,-0.1582,-0.1554,-0.1645,-0.1607,-0.1613,-0.1648,-0.1659,-0.1668,-0.1658,-0.1528,0,0,0,0,0,-0.137,-0.14,-0.1418,-0.1445,-0.1461,-0.1471,-0.1484,-0.1492,-0.1512,-0.1526,-0.1547,-0.1574,-0.1601,-0.1626,-0.1649,-0.1703,-0.1675,-0.1735,-0.1744,-0.1751,-0.175,-0.1748,-0.1756,-0.1673,-0.1673,-0.1673,0,0,-0.1375,-0.1396,-0.1412,-0.1448,-0.1465,-0.1498,-0.148,-0.1513,-0.1545,-0.153,-0.1594,-0.1606,-0.1622,-0.1678,-0.1705,-0.1689,-0.1761,-0.1758,-0.1764,-0.1758,-0.1754,-0.1761,-0.1768,-0.1677,-0.1676,-0.1675,0,0,-0.1393,-0.1426,-0.1455,-0.1482,-0.1519,-0.1531,-0.1547,-0.1575,-0.1598,-0.1655,-0.165,-0.1689,-0.1741,-0.1755,-0.1768,-0.1844,-0.1804,-0.1857,-0.1902,-0.1902,-0.1908,-0.1912,-0.1881,-0.1882,-0.1868,-0.1868,-0.1868,0,-0.1399,-0.1438,-0.1465,-0.1503,-0.1528,-0.1552,-0.1587,-0.162,-0.1661,-0.1681,-0.1691,-0.1755,-0.1777,-0.1823,-0.1855,-0.1864,-0.1841,-0.1858,-0.1911,-0.1915,-0.1919,-0.1885,-0.1886,-0.1871,-0.1871,-0.1871,-0.187,0,-0.143,-0.1475,-0.1498,-0.1557,-0.159,-0.1627,-0.1673,-0.1716,-0.175,-0.177,-0.183,-0.1857,-0.1886,-0.1911,-0.1912,-0.1956,-0.1923,-0.1914,-0.1876,-0.1931,-0.1892,-0.1892,-0.1877,-0.1875,-0.1874,-0.1873,0,0,-0.1402,-0.15,-0.151,-0.1547,-0.1623,-0.1648,-0.1722,-0.1774,-0.181,-0.1868,-0.1902,-0.197,-0.197,-0.1984,-0.1989,-0.2004,-0.2022,-0.1981,-0.1979,-0.1936,-0.1994,-0.1842,-0.1826,-0.2019,-0.202,-0.2021,-0.1952,0,-0.1415,-0.1488,-0.1537,-0.1611,-0.1652,-0.1709,-0.1768,-0.1825,-0.1873,-0.1918,-0.1952,-0.1993,-0.2003,-0.2019,-0.2038,-0.2023,-0.2026,-0.2039,-0.1959,-0.1956,-0.1804,-0.1823,-0.2023,-0.1951,-0.1951,-0.1951,-0.1951,0,-0.1419,-0.147,-0.1544,-0.1637,-0.1661,-0.1713,-0.1797,-0.1853,-0.1924,-0.1959,-0.2002,-0.2018,-0.2057,-0.2055,-0.2054,-0.2059,-0.2035,-0.2021,-0.2017,-0.185,-0.1803,-0.1889,-0.195,-0.195,-0.195,-0.195,-0.195,0,-0.1366,-0.147,-0.1528,-0.1563,-0.1674,-0.1719,-0.1779,-0.1862,-0.1906,-0.1978,-0.2004,-0.2044,-0.206,-0.2053,-0.2032,-0.2046,-0.2002,-0.2012,-0.1847,-0.1835,-0.1964,-0.1959,-0.2002,-0.2002,-0.2002,-0.2002,-0.2003,0,-0.1343,-0.1392,-0.1514,-0.1545,-0.1611,-0.17,-0.177,-0.1832,-0.1911,-0.1947,-0.2015,-0.2025,-0.2064,-0.2044,-0.2024,-0.1913,-0.1991,-0.1841,-0.1807,-0.1992,-0.1992,-0.1962,-0.1958,-0.2,-0.2,-0.2001,-0.2001,0,-0.1272,-0.1356,-0.1427,-0.155,-0.159,-0.1637,-0.1759,-0.1799,-0.1889,-0.1931,-0.1953,-0.201,-0.1969,-0.1965,-0.1935,-0.1876,-0.1806,-0.1749,-0.192,-0.1899,-0.1643,-0.1644,-0.1556,-0.155,-0.1545,-0.1541,-0.1538,0,-0.124,-0.1272,-0.1408,-0.1446,-0.1507,-0.1595,-0.1646,-0.1767,-0.1805,-0.1899,-0.1896,-0.1898,-0.1909,-0.1724,-0.1752,-0.166,-0.1648,-0.1608,-0.1655,-0.1622,-0.1598,-0.1607,-0.1614,-0.153,-0.1528,-0.1527,-0.1526,0,-0.1167,-0.1228,-0.1284,-0.1362,-0.143,-0.1498,-0.1583,-0.1597,-0.1716,-0.1817,-0.1774,-0.1733,-0.1667,-0.1614,-0.1537,-0.1491,-0.1637,-0.1556,-0.1567,-0.1611,-0.1588,-0.1572,-0.1585,-0.1508,-0.1511,-0.1512,-0.1513,0,-0.1107,-0.1125,-0.1201,-0.1255,-0.1332,-0.1361,-0.1433,-0.1466,-0.1515,-0.1628,-0.1605,-0.16,-0.1647,-0.1523,-0.1465,-0.1385,-0.1374,-0.1353,-0.1375,-0.1395,-0.1372,-0.1322,-0.1117,0,0,0,0,0,-0.1038,-0.1042,-0.1084,-0.1139,-0.1207,-0.1248,-0.1364,-0.1439,-0.1558,-0.1479,-0.1538,-0.1468,-0.1371,-0.1376,-0.1252,-0.1382,-0.1377,-0.1236,-0.1366,-0.1411,-0.1432,-0.1419,0,0,0,0,0,0,-0.099,-0.1026,-0.104,-0.1017,-0.1024,-0.1088,-0.1151,-0.1244,-0.1216,-0.1334,-0.1275,-0.1368,-0.128,-0.1387,-0.121,-0.1209,-0.1261,-0.1248,-0.1244,-0.14,-0.1418,-0.1435,-0.1429,0,0,0,0,0]},{"header":{"parameterUnit":"m.s-1","parameterCategory":2,"la1":30.2991,"la2":30.254,"lo1":-89.0895,"lo2":-89.0444,"dy":0.0017,"dx":0.0017,"nx":28,"ny":28,"refTime":"2026-01-01T09:00:00:Z","depth":"4","parameterNumber":3,"parameterNumberName":"V-component_of_CURRENTS"},"data":[0,0,0,0,0,0,0,0,0,0,0,0,0,0,0,0,0,0,0,0,0,0,0,0,0,0,0,0,0,0,0,0,0,0,0,0,0,0,0,0,0,0,0,0,0,0,0,0,0,0,0,0,0,0,0,0,0,0,-0.0253,-0.0253,0,-0.0258,-0.0258,-0.0258,-0.0261,-0.0261,-0.0261,-0.0261,-0.0224,-0.0223,-0.0222,0,0,0,0,0,0,0,0,0,0,0,0,0,-0.0237,-0.0237,-0.0253,-0.0253,-0.0253,-0.0258,-0.0258,-0.0258,-0.0261,-0.0261,-0.0261,-0.0261,-0.0224,-0.0223,-0.0222,0,0,0,0,0,0,0,0,0,0,0,0,0,-0.0244,-0.0237,-0.0253,-0.0254,-0.0254,-0.0258,-0.0258,-0.0259,-0.0261,-0.0261,-0.0261,-0.0261,-0.0225,-0.0223,-0.0222,-0.0216,0,0,-0.0218,-0.0217,0,0,0,0,0,0,0,0,-0.0243,-0.0245,-0.0254,-0.0254,-0.0254,-0.0258,-0.0239,-0.0242,-0.0261,-0.0259,-0.0261,-0.0261,-0.0231,-0.0229,-0.0232,-0.0215,-0.0213,-0.0218,-0.0217,-0.0216,-0.0216,0,0,0,0,0,0,0,-0.0243,-0.0244,-0.0256,-0.0254,-0.0254,-0.0251,-0.0252,-0.024,-0.0246,-0.026,-0.026,-0.0259,-0.0231,-0.0234,-0.0231,-0.0212,-0.0218,-0.0217,-0.0216,-0.0215,-0.016,-0.0159,0,0,0,0,0,0,-0.0241,-0.0244,-0.0256,-0.0256,-0.0247,-0.0252,-0.0253,-0.0258,-0.0247,-0.0245,-0.0259,-0.0259,-0.0236,-0.0233,-0.023,-0.0211,-0.0216,-0.0215,-0.0214,-0.016,-0.016,-0.0159,0,0,0,0,0,0,-0.0241,-0.0242,-0.0256,-0.0249,-0.025,-0.0252,-0.0257,-0.0258,-0.0263,-0.0247,-0.0244,-0.0264,-0.0236,-0.0232,-0.0216,-0.021,-0.0215,-0.0213,-0.0161,-0.016,-0.0159,-0.018,0,0,0,0,0,0,-0.024,-0.0242,-0.0249,-0.0249,-0.0251,-0.0262,-0.0257,-0.0258,-0.0262,-0.0262,-0.025,-0.0246,-0.0235,-0.0219,-0.0215,-0.0208,-0.0212,-0.0162,-0.0161,-0.016,-0.018,-0.0179,-0.0179,0,0,0,0,0,-0.024,-0.0254,-0.0249,-0.025,-0.0258,-0.0263,-0.0264,-0.0265,-0.0262,-0.0268,-0.0253,-0.0247,-0.0208,-0.0217,-0.0213,-0.0206,-0.0163,-0.0161,-0.016,-0.018,-0.0179,-0.0179,0,0,0,0,0,0,-0.0257,-0.0255,-0.025,-0.0264,-0.0263,-0.0263,-0.027,-0.0267,-0.0262,-0.0261,-0.0244,-0.0239,-0.0223,-0.0209,-0.022,-0.0183,-0.0182,-0.0179,-0.0198,-0.0198,-0.0197,-0.0202,-0.0211,0,0,0,0,0,-0.0261,-0.0268,-0.0263,-0.0275,-0.0274,-0.0271,-0.0274,-0.0273,-0.0266,-0.0265,-0.0252,-0.0232,-0.0214,-0.0202,-0.0187,-0.017,-0.0143,-0.0159,-0.0159,-0.0159,-0.0158,-0.0104,-0.0099,-0.0154,-0.0154,-0.0154,0,0,-0.0271,-0.0271,-0.0276,-0.0278,-0.0278,-0.0282,-0.0273,-0.028,-0.0279,-0.026,-0.0255,-0.0236,-0.0209,-0.0191,-0.0181,-0.0179,-0.0129,-0.0157,-0.0157,-0.0156,-0.0102,-0.0097,-0.0092,-0.0153,-0.0153,-0.0153,0,0,-0.0297,-0.0294,-0.0308,-0.0305,-0.0303,-0.0297,-0.0298,-0.0294,-0.0287,-0.0277,-0.0259,-0.0231,-0.0212,-0.0184,-0.0169,-0.0154,-0.0132,-0.0152,-0.0152,-0.01,-0.0096,-0.0091,-0.0052,-0.0044,-0.0148,-0.0148,-0.0148,0,-0.0311,-0.0327,-0.0313,-0.0323,-0.0325,-0.0303,-0.0317,-0.0304,-0.0294,-0.0284,-0.0277,-0.0228,-0.0204,-0.017,-0.0164,-0.0153,-0.0129,-0.0159,-0.01,-0.0095,-0.009,-0.0052,-0.0042,-0.0149,-0.0149,-0.0149,-0.0149,0,-0.0343,-0.0354,-0.0362,-0.0363,-0.0361,-0.037,-0.0347,-0.0339,-0.0322,-0.0304,-0.027,-0.023,-0.02,-0.0183,-0.017,-0.0124,-0.012,-0.0111,-0.0105,-0.0086,-0.0046,-0.0036,-0.015,-0.015,-0.015,-0.015,0,0,-0.0377,-0.0385,-0.0389,-0.0398,-0.0384,-0.0389,-0.0375,-0.036,-0.0351,-0.0314,-0.0295,-0.0242,-0.0216,-0.0195,-0.0166,-0.0115,-0.0054,-0.0102,-0.0098,-0.007,0.0049,0.0036,0.0046,-0.004,-0.0038,-0.0037,0.0061,0,-0.0408,-0.0442,-0.0431,-0.0454,-0.0469,-0.0439,-0.043,-0.0406,-0.0375,-0.0346,-0.0281,-0.0252,-0.0221,-0.0205,-0.0148,-0.0083,-0.0029,-0.0082,0.0033,0.0036,0.0017,0.0057,-0.0031,0.0069,0.0071,0.0073,0.0074,0,-0.0442,-0.0461,-0.0498,-0.0505,-0.0508,-0.0514,-0.0496,-0.0483,-0.0424,-0.0398,-0.0343,-0.0295,-0.0217,-0.0192,-0.0058,-0.0098,-0.0026,0.0033,0.0038,0.004,0.0042,0.0049,0.0092,0.0091,0.009,0.0088,0.0087,0,-0.048,-0.0505,-0.054,-0.0544,-0.0545,-0.0553,-0.0547,-0.0505,-0.049,-0.0427,-0.0404,-0.031,-0.0258,-0.0155,-0.0032,-0.0044,0.0118,0.0117,0.0177,0.0176,0.0166,0.016,0.0223,0.0222,0.0222,0.0222,0.0222,0,-0.0514,-0.0542,-0.0567,-0.0585,-0.0622,-0.06,-0.0615,-0.0591,-0.0545,-0.0517,-0.0437,-0.0381,-0.0244,-0.0135,-0.0033,0.0103,0.0123,0.0187,0.0207,0.0154,0.0146,0.0173,0.0166,0.0226,0.0225,0.0224,0.0223,0,-0.0546,-0.0563,-0.0608,-0.0632,-0.0645,-0.067,-0.0673,-0.0672,-0.0622,-0.0579,-0.0557,-0.0426,-0.0277,-0.0141,0.004,0.0102,0.0232,0.0277,0.0209,0.0222,0.0254,0.0245,0.0349,0.0349,0.0349,0.035,0.035,0,-0.0564,-0.0593,-0.0653,-0.0689,-0.0707,-0.0739,-0.0756,-0.0721,-0.0705,-0.0593,-0.0567,-0.0417,-0.0316,-0.0067,0.0065,0.0253,0.0277,0.0325,0.0295,0.0261,0.0271,0.0261,0.0251,0.0351,0.0351,0.0351,0.0351,0,-0.0596,-0.0624,-0.0661,-0.0741,-0.0784,-0.0817,-0.0829,-0.0822,-0.0752,-0.0707,-0.0545,-0.0398,-0.023,-0.0048,0.0095,0.023,0.0279,0.033,0.033,0.0301,0.0265,0.0272,0.0262,0.0353,0.0352,0.0352,0.0352,0,-0.0617,-0.0658,-0.0716,-0.0779,-0.084,-0.0871,-0.0875,-0.0823,-0.0787,-0.0647,-0.0586,-0.0384,-0.0255,-0.0057,0.0081,0.0202,0.0226,0.0242,0.0246,0.0246,0.0178,0.0115,0.0185,0,0,0,0,0,-0.0631,-0.0679,-0.0747,-0.0816,-0.0876,-0.0903,-0.0909,-0.0893,-0.0822,-0.0708,-0.0638,-0.0464,-0.0218,-0.0104,0.0019,0.0049,0.0208,0.019,0.0219,0.0361,0.0359,0.0295,0,0,0,0,0,0,-0.0643,-0.0712,-0.0747,-0.0827,-0.0876,-0.0929,-0.0933,-0.0887,-0.0808,-0.0711,-0.0571,-0.0458,-0.0222,-0.0281,0.0018,0.0056,0.0083,0.0318,0.0319,0.0361,0.036,0.0359,0.0292,0,0,0,0,0]}]]